User: anonymous   Login
Location: Unspecified
(0.0000°N, 0.0000°E)
Time: 15:24:49
(UTC+00:00)
Language:

USA 112 - Orbit

View from above orbital plane
View from above orbital plane
View from above satellite
View from above satellite

Ground track
Ground track

The orbit data is extracted from the following two-line orbital elements,

1 23609U 95034A   18040.04547053 0.00000000  00000-0  00000-0 0    05
2 23609  63.1910 123.1722 6970876 265.5052  18.9222  2.00612000    03
Epoch (UTC): 09 February 2018 01:05:28
Eccentricity: 0.6970876
inclination: 63.1910°
perigee height: 1666 km
apogee height: 38689 km
right ascension of ascending node: 123.1722°
argument of perigee: 265.5052°
revolutions per day: 2.00612000
mean anomaly at epoch: 18.9222°
orbit number at epoch: 0

The dashed part of the orbit path shows where the satellite is in the earth's shadow,  

DLR